Tracking 28126 objects as of 1-Oct-2023
HD Live streaming from Space Station
objects crossing your sky now

IRIDIUM 82

Track IRIDIUM 82 now!
10-day predictions
IRIDIUM 82 is classified as:


NORAD ID: 25467
Int'l Code: 1998-051A
Perigee: 462.8 km
Apogee: 670.2 km
Inclination: 86.4 °
Period: 95.8 minutes
Semi major axis: 6937 km
RCS: 4.1187 m2 (large)
Launch date: September 8, 1998
Source: United States (US)
Launch site: AIR FORCE WESTERN TEST RANGE (AFWTR)
Your satellite tracking list
Your tracking list is empty




NASA's NSSDC Master Catalog

Two Line Element Set (TLE):
1 25467U 98051A   23273.45478315  .00017615  00000-0  10381-2 0  9996
2 25467  86.3960  48.2996 0149447  92.9572 268.8775 15.02435639329240
Source of the keplerian elements: AFSPC